IZ2MHJ-3 Weather Reports


time (UTC)temp
C
wind
direction
speed
KPH
gust
KPH
rain 1hr
cm
rain 24hr
cm
rain mn
cm
humidity
%
barometer
mb
20260507064457 15 0.0 0.0 0.00 0.00 0.00 73 1014.7
20260507062457 13 0.0 0.0 0.00 0.00 0.00 81 1014.7
20260507060456 13 0.0 0.0 0.00 0.00 0.00 83 1014.7
20260507054456 13 0.0 0.0 0.00 0.00 0.00 82 1014.6
20260507052455 12 0.0 0.0 0.00 0.00 0.00 85 1014.5
20260507050455 12 0.0 0.0 0.00 0.00 0.00 85 1014.1
20260507044455 12 0.0 0.0 0.00 0.00 0.00 86 1013.9
20260507042454 11 0.0 0.0 0.00 0.00 0.00 87 1013.8
20260507040454 11 0.0 0.0 0.00 0.00 0.00 87 1013.6
20260507034454 11 0.0 0.0 0.00 0.00 0.00 88 1013.6
20260507032454 11 0.0 0.0 0.00 0.00 0.00 88 1013.5
20260507030454 11 0.0 0.0 0.00 0.00 0.00 88 1013.7
20260507024453 11 0.0 0.0 0.00 0.00 0.00 87 1013.6
20260507022453 12 0.0 0.0 0.00 0.00 0.00 87 1013.6
20260507020452 12 0.0 0.0 0.00 0.00 0.00 87 1013.6
20260507014452 12 0.0 0.0 0.00 0.00 0.00 87 1013.4
20260507012452 12 0.0 0.0 0.00 0.00 0.00 87 1013.2
20260507010451 12 0.0 0.0 0.00 0.00 0.00 86 1013.3
20260507004451 12 0.0 0.0 0.00 0.00 0.00 85 1013.2
20260507002451 12 0.0 0.0 0.00 0.00 0.00 84 1013.3
20260507000451 12 0.0 0.0 0.00 0.00 0.00 83 1013.3
20260506234450 12 0.0 0.0 0.00 0.00 0.00 84 1013.0
20260506232450 12 0.0 0.0 0.00 0.00 0.00 84 1012.8
20260506230450 12 0.0 0.0 0.00 0.00 0.00 84 1012.9
20260506224449 12 0.0 0.0 0.00 0.00 0.00 84 1012.9
20260506222449 12 0.0 0.0 0.00 0.00 0.00 83 1013.0
20260506220449 12 0.0 0.0 0.00 0.00 0.00 84 1012.8
20260506214449 12 0.0 0.0 0.00 0.00 0.00 83 1012.7
20260506212448 12 0.0 0.0 0.00 0.00 0.00 83 1012.8
20260506210448 12 0.0 0.0 0.00 0.00 0.00 84 1012.9
20260506204447 12 0.0 0.0 0.00 0.00 0.00 82 1012.7
20260506202447 12 0.0 0.0 0.00 0.00 0.00 81 1012.8
20260506200447 12 0.0 0.0 0.00 0.00 0.00 81 1012.5
20260506194447 13 0.0 0.0 0.00 0.00 0.00 84 1012.4
20260506192446 13 0.0 0.0 0.00 0.00 0.00 80 1012.0
20260506190446 13 0.0 0.0 0.00 0.00 0.00 81 1011.7
20260506184446 13 0.0 0.0 0.00 0.00 0.00 79 1011.3
20260506182445 13 0.0 0.0 0.00 0.00 0.00 83 1011.0
20260506180446 12 0.0 0.0 0.00 0.00 0.00 87 1010.9
20260506174445 12 0.0 0.0 0.00 0.00 0.00 87 1010.7
20260506172444 12 0.0 0.0 0.00 0.00 0.00 83 1010.4
20260506170444 12 0.0 0.0 0.00 0.00 0.00 82 1010.9
20260506164444 15 0.0 0.0 0.00 0.00 0.00 66 1008.8
20260506162443 17 0.0 0.0 0.00 0.00 0.00 61 1009.1
20260506160444 18 0.0 0.0 0.00 0.00 0.00 74 1008.4
20260506154443 18 0.0 0.0 0.00 0.00 0.00 73 1008.3
20260506152443 19 0.0 0.0 0.00 0.00 0.00 69 1008.3
20260506150443 18 0.0 0.0 0.00 0.00 0.00 70 1008.7
20260506144442 18 0.0 0.0 0.00 0.00 0.00 72 1009.1
20260506142442 18 0.0 0.0 0.00 0.00 0.00 71 1009.2
20260506140442 18 0.0 0.0 0.00 0.00 0.00 71 1009.6
20260506134441 18 0.0 0.0 0.00 0.00 0.00 70 1009.7
20260506132441 19 0.0 0.0 0.00 0.00 0.00 66 1009.9
20260506130441 19 0.0 0.0 0.00 0.00 0.00 74 1010.1
20260506124440 18 0.0 0.0 0.00 0.00 0.00 77 1010.3
20260506122441 17 0.0 0.0 0.00 0.00 0.00 78 1010.6
20260506120440 16 0.0 0.0 0.00 0.00 0.00 82 1010.9
20260506114440 16 0.0 0.0 0.00 0.00 0.00 82 1010.9
20260506112439 15 0.0 0.0 0.00 0.00 0.00 84 1010.9
20260506110439 15 0.0 0.0 0.00 0.00 0.00 87 1011.1
20260506104439 15 0.0 0.0 0.00 0.00 0.00 88 1010.4
20260506102438 14 0.0 0.0 0.00 0.00 0.00 90 1011.3
20260506100440 13 0.0 0.0 0.00 0.00 0.00 94 1011.5
20260506094438 13 0.0 0.0 0.00 0.00 0.00 94 1011.3
20260506092438 13 0.0 0.0 0.00 0.00 0.00 95 1011.1
20260506090437 13 0.0 0.0 0.00 0.00 0.00 90 1011.4
20260506084437 13 0.0 0.0 0.00 0.00 0.00 91 1011.1
20260506082437 13 0.0 0.0 0.00 0.00 0.00 94 1011.1
20260506080437 13 0.0 0.0 0.00 0.00 0.00 96 1011.2
20260506072436 13 0.0 0.0 0.00 0.00 0.00 96 1011.3
20260506070435 13 0.0 0.0 0.00 0.00 0.00 99 1011.6